Stinnett, TX

12:27 PM CST on January 24, 2017 (GMT -0600)
Pampa / Mesa Vista

Weather History for KBPC - November, 2013

Change the Weather History Date:

Wednesday, November 13, 2013

  Actual Average (KBGD) Record (KBGD)
Temperature  
Mean Temperature 45 °F -  
Max Temperature 64 °F 58 °F 82 °F (2007)
Min Temperature 26 °F 37 °F 11 °F (1986)
Degree Days  
Heating Degree Days 20    
Moisture  
Dew Point 26 °F    
Average Humidity 47    
Maximum Humidity 69    
Minimum Humidity 32    
Precipitation  
Precipitation 0.00 in - - ()
Sea Level Pressure  
Sea Level Pressure 30.36 in    
Wind  
Wind Speed 11 mph (SSW)    
Max Wind Speed 25 mph    
Max Gust Speed 33 mph    
Visibility 10 miles    
Events      
Averages and records for this station are not official NWS values.
T = Trace of Precipitation, MM = Missing Value Source: NWS Daily Summary

Daily Weather History Graph

Daily Weather History Graph

Search for Another Location

Airport or City:

Trip Planner

Search our weather history database for the weather conditions in past years. The results will help you decide how hot, cold, wet, or windy it might be!

Date:

Astronomy

Nov. 13, 2013 Rise Set
Actual Time 7:18 AM CST 5:37 PM CST
Civil Twilight 6:51 AM CST 6:05 PM CST
Nautical Twilight 6:20 AM CST 6:35 PM CST
Astronomical Twilight 5:50 AM CST 7:06 PM CST
Moon 3:20 PM CST (11/13) 3:20 AM CST (11/13)
Length of Visible Light 11h 13m
Length of Day
10h 19m
Waxing Gibbous, 85% of the Moon is Illuminated
Nov 13
Waxing Gibbous
Nov 17
Full
Nov 25
Last Quarter
Dec 2
New
Dec 9
First Quarter

Hourly Weather History & Observations

Time (CST) Temp. Windchill Dew Point Humidity Pressure Visibility Wind Dir Wind Speed Gust Speed Precip Events Conditions
12:15 AM 28.4 °F 20.4 °F 19.4 °F 69% 30.60 in 10.0 mi SW 8.1 mph - N/A   Clear
12:35 AM 28.4 °F 22.2 °F 17.6 °F 64% 30.60 in 10.0 mi SW 5.8 mph - N/A   Clear
12:55 AM 28.4 °F 23.3 °F 17.6 °F 64% 30.58 in 10.0 mi WSW 4.6 mph - N/A   Clear
1:15 AM 28.4 °F 21.2 °F 17.6 °F 64% 30.58 in 10.0 mi WSW 6.9 mph - N/A   Clear
1:35 AM 26.6 °F 19.1 °F 17.6 °F 69% 30.58 in 10.0 mi SW 6.9 mph - N/A   Clear
1:55 AM 28.4 °F 22.2 °F 17.6 °F 64% 30.57 in 10.0 mi SW 5.8 mph - N/A   Clear
2:15 AM 28.4 °F - 17.6 °F 64% 30.57 in 10.0 mi Calm Calm - N/A   Clear
2:35 AM 28.4 °F - 17.6 °F 64% 30.57 in 10.0 mi Calm Calm - N/A   Clear
2:55 AM 30.2 °F 24.3 °F 17.6 °F 60% 30.56 in 10.0 mi SSW 5.8 mph - N/A   Clear
3:15 AM 30.2 °F 24.3 °F 15.8 °F 55% 30.55 in 10.0 mi SSW 5.8 mph - N/A   Clear
3:35 AM 30.2 °F 26.7 °F 17.6 °F 60% 30.55 in 10.0 mi WNW 3.5 mph - N/A   Clear
3:55 AM 32.0 °F - 15.8 °F 51% 30.54 in 10.0 mi Calm Calm - N/A   Clear
4:15 AM 28.4 °F - 17.6 °F 64% 30.54 in 10.0 mi Calm Calm - N/A   Clear
4:35 AM 32.0 °F - 15.8 °F 51% 30.53 in 10.0 mi Calm Calm - N/A   Clear
4:55 AM 32.0 °F - 15.8 °F 51% 30.52 in 10.0 mi Calm Calm - N/A   Clear
5:15 AM 32.0 °F 27.5 °F 17.6 °F 55% 30.51 in 10.0 mi SW 4.6 mph - N/A   Clear
5:35 AM 32.0 °F 28.7 °F 17.6 °F 55% 30.51 in 10.0 mi SW 3.5 mph - N/A   Clear
5:55 AM 32.0 °F 26.4 °F 17.6 °F 55% 30.50 in 10.0 mi SSW 5.8 mph - N/A   Clear
6:15 AM 32.0 °F 28.7 °F 19.4 °F 60% 30.50 in 10.0 mi SW 3.5 mph - N/A   Clear
6:35 AM 32.0 °F 28.7 °F 17.6 °F 55% 30.49 in 10.0 mi SW 3.5 mph - N/A   Clear
6:55 AM 32.0 °F 28.7 °F 17.6 °F 55% 30.49 in 10.0 mi WSW 3.5 mph - N/A   Clear
7:15 AM 30.2 °F - 17.6 °F 60% 30.49 in 10.0 mi Calm Calm - N/A   Clear
7:35 AM 30.2 °F - 17.6 °F 60% 30.48 in 10.0 mi Calm Calm - N/A   Clear
7:55 AM 33.8 °F 25.8 °F 21.2 °F 60% 30.48 in 10.0 mi SW 10.4 mph - N/A   Clear
8:15 AM 35.6 °F 28.6 °F 21.2 °F 56% 30.48 in 10.0 mi SW 9.2 mph - N/A   Clear
8:35 AM 37.4 °F 30.8 °F 23.0 °F 56% 30.47 in 10.0 mi SW 9.2 mph - N/A   Clear
8:55 AM 41.0 °F 34.3 °F 24.8 °F 53% 30.47 in 10.0 mi SW 11.5 mph - N/A   Clear
9:15 AM 42.8 °F 37.5 °F 28.4 °F 57% 30.47 in 10.0 mi SSW 9.2 mph - N/A   Clear
9:35 AM 44.6 °F 38.1 °F 28.4 °F 53% 30.46 in 10.0 mi SW 13.8 mph - N/A   Clear
9:55 AM 46.4 °F 40.1 °F 30.2 °F 53% 30.45 in 10.0 mi SW 15.0 mph 21.9 mph N/A   Clear
10:15 AM 50.0 °F - 32.0 °F 50% 30.44 in 10.0 mi SW 17.3 mph - N/A   Clear
10:35 AM 51.8 °F - 32.0 °F 47% 30.43 in 10.0 mi SW 16.1 mph 23.0 mph N/A   Clear
10:55 AM 53.6 °F - 33.8 °F 47% 30.43 in 10.0 mi SW 15.0 mph 24.2 mph N/A   Clear
11:15 AM 53.6 °F - 33.8 °F 47% 30.42 in 10.0 mi SW 19.6 mph 26.5 mph N/A   Clear
11:35 AM 55.4 °F - 33.8 °F 44% 30.40 in 10.0 mi SW 19.6 mph 24.2 mph N/A   Clear
11:55 AM 57.2 °F - 35.6 °F 44% 30.38 in 10.0 mi SSW 23.0 mph 27.6 mph N/A   Clear
12:15 PM 59.0 °F - 35.6 °F 42% 30.36 in 10.0 mi SW 18.4 mph 27.6 mph N/A   Clear
12:35 PM 59.0 °F - 33.8 °F 39% 30.35 in 10.0 mi SW 17.3 mph 26.5 mph N/A   Clear
12:55 PM 60.8 °F - 33.8 °F 36% 30.33 in 10.0 mi SW 20.7 mph 25.3 mph N/A   Clear
1:15 PM 60.8 °F - 33.8 °F 36% 30.31 in 10.0 mi SW 18.4 mph 29.9 mph N/A   Clear
1:35 PM 62.6 °F - 33.8 °F 34% 30.29 in 10.0 mi SSW 18.4 mph 27.6 mph N/A   Clear
1:55 PM 64.4 °F - 33.8 °F 32% 30.28 in 10.0 mi SSW 20.7 mph 29.9 mph N/A   Clear
2:15 PM 64.4 °F - 33.8 °F 32% 30.27 in 10.0 mi SSW 23.0 mph 32.2 mph N/A   Clear
2:35 PM 64.4 °F - 33.8 °F 32% 30.26 in 10.0 mi SW 25.3 mph 31.1 mph N/A   Clear
2:55 PM 64.4 °F - 33.8 °F 32% 30.25 in 10.0 mi SW 21.9 mph 31.1 mph N/A   Clear
3:15 PM 64.4 °F - 33.8 °F 32% 30.23 in 10.0 mi SSW 24.2 mph 33.4 mph N/A   Clear
3:35 PM 64.4 °F - 33.8 °F 32% 30.23 in 10.0 mi SSW 21.9 mph 33.4 mph N/A   Clear
3:55 PM 62.6 °F - 33.8 °F 34% 30.22 in 10.0 mi SSW 19.6 mph 31.1 mph N/A   Clear
4:15 PM 62.6 °F - 32.0 °F 32% 30.22 in 10.0 mi SSW 21.9 mph 29.9 mph N/A   Clear
4:35 PM 62.6 °F - 32.0 °F 32% 30.21 in 10.0 mi SSW 21.9 mph 31.1 mph N/A   Clear
4:55 PM 60.8 °F - 32.0 °F 34% 30.20 in 10.0 mi SSW 18.4 mph 27.6 mph N/A   Clear
5:15 PM 60.8 °F - 32.0 °F 34% 30.19 in 10.0 mi SSW 20.7 mph 26.5 mph N/A   Clear
5:35 PM 59.0 °F - 32.0 °F 36% 30.19 in 10.0 mi South 16.1 mph 21.9 mph N/A   Clear
5:55 PM 57.2 °F - 32.0 °F 38% 30.19 in 10.0 mi South 17.3 mph 20.7 mph N/A   Clear
6:15 PM 55.4 °F - 32.0 °F 41% 30.19 in 10.0 mi South 18.4 mph 23.0 mph N/A   Clear
6:35 PM 55.4 °F - 32.0 °F 41% 30.19 in 10.0 mi South 20.7 mph 26.5 mph N/A   Clear
6:55 PM 53.6 °F - 32.0 °F 44% 30.19 in 10.0 mi South 18.4 mph 25.3 mph N/A   Clear
7:15 PM 53.6 °F - 32.0 °F 44% 30.18 in 10.0 mi South 19.6 mph 26.5 mph N/A   Clear
7:35 PM 51.8 °F - 32.0 °F 47% 30.18 in 10.0 mi South 18.4 mph 24.2 mph N/A   Clear
7:55 PM 51.8 °F - 30.2 °F 44% 30.18 in 10.0 mi South 20.7 mph 26.5 mph N/A   Clear
8:15 PM 51.8 °F - 28.4 °F 41% 30.17 in 10.0 mi South 23.0 mph 29.9 mph N/A   Clear
8:35 PM 51.8 °F - 26.6 °F 38% 30.17 in 10.0 mi South 23.0 mph 29.9 mph N/A   Clear
8:55 PM 51.8 °F - 26.6 °F 38% 30.16 in 10.0 mi South 23.0 mph 32.2 mph N/A   Clear
9:15 PM 51.8 °F - 26.6 °F 38% 30.16 in 10.0 mi South 23.0 mph 31.1 mph N/A   Clear
9:35 PM 51.8 °F - 24.8 °F 35% 30.15 in 10.0 mi South 23.0 mph 32.2 mph N/A   Clear
9:55 PM 50.0 °F - 24.8 °F 37% 30.15 in 10.0 mi South 23.0 mph 29.9 mph N/A   Clear
10:15 PM 48.2 °F - 23.0 °F 37% 30.14 in 10.0 mi South 23.0 mph 31.1 mph N/A   Clear
10:35 PM 48.2 °F - 23.0 °F 37% 30.14 in 10.0 mi SSW 23.0 mph 31.1 mph N/A   Clear
10:55 PM 46.4 °F 38.5 °F 23.0 °F 40% 30.13 in 10.0 mi SSW 21.9 mph 31.1 mph N/A   Clear
11:15 PM 46.4 °F 38.7 °F 23.0 °F 40% 30.13 in 10.0 mi SSW 20.7 mph 25.3 mph N/A   Clear
11:35 PM 44.6 °F 36.9 °F 21.2 °F 39% 30.12 in 10.0 mi SW 18.4 mph 24.2 mph N/A   Clear
11:55 PM 44.6 °F 38.1 °F 21.2 °F 39% 30.13 in 10.0 mi WSW 13.8 mph - N/A   Clear